Flag for Germany Weather past 2 weeks in Lübbecke, North Rhine-Westphalia, Germany

Now
36 °F

Passing clouds.


Feels Like: 25 °F
Forecast: 30 / 34 °F
Wind: 20 mph from Southwest

Location: Bueckeburg

Current Time: Jan 29, 2015 at 6:39:24 AM

Latest Report: Jan 29, 2015 at 5:20 AM


Visibility: N/A

Pressure: 29.24 "Hg

Humidity: 75%

Dew point: 28 °F

Location of LübbeckeLocation

Historic Weather in Lübbecke — Graph

°F

Lübbecke temperature yesterday

Maximum temperature yesterday: 43 °F (at 12:20 PM)
Minimum temperature yesterday: 36 °F (at 10:20 PM)
Average temperature yesterday: 40 °F

Past Weeks' High & Low Weather Summary

 TemperatureHumidityPressure
High52 °F (Jan 15, 2:20 PM)100% (Jan 20, 6:20 AM)30.33 "Hg (Jan 20, 6:20 AM)
Low27 °F (Jan 21, 7:20 AM)60% (Jan 21, 1:20 PM)29.24 "Hg (Jan 29, 5:20 AM)
Average36 °F84%29.93 "Hg
* Reported Jan 14 5:02 AM — Jan 29 5:20 AM, Lübbecke, Weather by CustomWeather, © 2014

Note: Actual official high and low records may vary slightly from our data, if they occured in-between our weather recording intervals... More about our weather records

Advertising

Lübbecke weather history for previous 24 hours

 ConditionsComfort  
Time TempWeatherWind HumidityBarometerVisibility
5:20 AM
Jan 29
36 °FPassing clouds.20 mph75%29.24 "HgN/A
4:20 AM36 °FPassing clouds.17 mph75%29.30 "HgN/A
3:20 AM36 °FPassing clouds.16 mph75%29.30 "HgN/A
2:20 AM37 °FPassing clouds.17 mph75%29.30 "HgN/A
1:20 AM37 °FPartly cloudy.17 mph75%29.30 "HgN/A
12:20 AM37 °FPassing clouds.18 mph81%29.33 "HgN/A
11:20 PM
Jan 28
36 °FPassing clouds.18 mph87%29.33 "HgN/A
10:20 PM36 °FPassing clouds.16 mph81%29.33 "HgN/A
9:20 PM37 °FPassing clouds.18 mph81%29.33 "HgN/A
8:20 PM37 °FLight rain. Passing clouds.14 mph87%29.33 "HgN/A
7:47 PM39 °FRain. Low clouds.25 mph87%29.33 "Hg5 mi
7:20 PM43 °FRain. Overcast.26 mph81%29.27 "Hg5 mi
6:20 PM41 °FRain. Overcast.21 mph81%29.30 "Hg5 mi
5:58 PM41 °FRain. Overcast.21 mph81%29.33 "Hg4 mi
5:20 PM41 °FRain. Passing clouds.22 mph81%29.33 "Hg4 mi
5:04 PM41 °FRain. Passing clouds.25 mph81%29.33 "Hg4 mi
4:20 PM43 °FPartly sunny.24 mph71%29.39 "HgN/A
3:20 PM43 °FPartly sunny.23 mph71%29.45 "HgN/A
2:20 PM43 °FPartly sunny.22 mph71%29.53 "HgN/A
1:20 PM43 °FPartly sunny.16 mph71%29.59 "HgN/A
12:20 PM43 °FBroken clouds.20 mph76%29.68 "HgN/A
11:20 AM41 °FScattered clouds.18 mph81%29.74 "HgN/A
10:20 AM41 °FPartly sunny.16 mph81%29.80 "HgN/A
9:20 AM39 °FPartly sunny.17 mph87%29.83 "HgN/A
8:49 AM39 °FLight rain. Partly sunny.15 mph87%29.86 "Hg6 mi
8:20 AM39 °FLight rain. Partly sunny.13 mph87%29.89 "Hg4 mi
7:20 AM39 °FPassing clouds.14 mph81%29.92 "HgN/A
7:01 AM39 °FPassing clouds.14 mph87%29.92 "HgN/A
6:20 AM39 °FPassing clouds.14 mph87%29.95 "HgN/A
Weather by CustomWeather, © 2014

See weather overviewHow to use our weather pages